Weather History for Du Bois, PA

Change the Weather History Date:

Monday, January 9, 2012

  Actual Average Record
Temperature  
Mean Temperature 32 °F 24 °F  
Max Temperature 41 °F 31 °F 59 °F (2008)
Min Temperature 22 °F 17 °F -8 °F (1970)
Degree Days  
Heating Degree Days 33 41  
Month to date heating degree days 336 369  
Since 1 July heating degree days 2227 3031  
Cooling Degree Days 0 0  
Month to date cooling degree days 0 0  
Year to date cooling degree days 0 0  
Moisture  
Dew Point 20 °F    
Average Humidity 66    
Maximum Humidity 92    
Minimum Humidity 40    
Precipitation  
Precipitation 0.00 in 0.11 in 0.54 in (1999)
Month to date precipitation 0.25 0.95  
Sea Level Pressure  
Sea Level Pressure 30.12 in    
Wind  
Wind Speed 5 mph (SSE)    
Max Wind Speed 15 mph    
Max Gust Speed 21 mph    
Visibility 10 miles    
Events      
T = Trace of Precipitation, MM = Missing Value Source: NWS Daily Summary

Daily Weather History Graph

Daily Weather History Graph

Search for Another Location

Airport:

Trip Planner

Search our weather history database for the weather conditions in past years. The results will help you decide how hot, cold, wet, or windy it might be!

Date:

Astronomy

Jan. 09, 2012 Rise Set
Actual Time 7:40 AM EST 5:04 PM EST
Civil Twilight 7:10 AM EST 5:35 PM EST
Nautical Twilight 6:35 AM EST 6:09 PM EST
Astronomical Twilight 6:02 AM EST 6:42 PM EST
Moon 5:49 PM EST (1/9) 7:39 AM EST (1/9)
Length of Visible Light 10h 25m
Length of Day
9h 23m
Full, 100% of the Moon is Illuminated
Jan 9
Full
Jan 16
Last Quarter
Jan 23
New
Jan 30
First Quarter
Feb 7
Full

Hourly Weather History & Observations

Time (EST) Temp. Windchill Dew Point Humidity Pressure Visibility Wind Dir Wind Speed Gust Speed Precip Events Conditions
12:56 AM 28.0 °F - 18.0 °F 66% 30.30 in 10.0 mi Calm Calm - N/A   Overcast
1:56 AM 28.0 °F - 18.0 °F 66% 30.29 in 10.0 mi Calm Calm - N/A   Overcast
2:56 AM 26.1 °F - 21.0 °F 81% 30.29 in 10.0 mi Calm Calm - N/A   Overcast
3:56 AM 25.0 °F 20.7 °F 21.0 °F 85% 30.27 in 10.0 mi ESE 3.5 mph - N/A   Overcast
4:56 AM 24.1 °F - 18.0 °F 77% 30.27 in 10.0 mi Calm Calm - N/A   Clear
5:56 AM 24.1 °F - 19.0 °F 81% 30.27 in 10.0 mi Calm Calm - N/A   Clear
6:56 AM 21.9 °F 17.2 °F 19.0 °F 89% 30.26 in 10.0 mi ESE 3.5 mph - N/A   Clear
7:56 AM 21.9 °F 15.7 °F 18.0 °F 85% 30.25 in 10.0 mi ESE 4.6 mph - N/A   Clear
8:56 AM 26.1 °F 20.5 °F 21.0 °F 81% 30.24 in 10.0 mi East 4.6 mph - N/A   Clear
9:56 AM 28.9 °F 20.4 °F 21.0 °F 72% 30.22 in 10.0 mi SE 9.2 mph - N/A   Clear
10:56 AM 33.8 °F 27.7 °F 21.2 °F 60% 30.13 in 10.0 mi ESE 6.9 mph - N/A   Clear
11:56 AM 36.0 °F 29.0 °F 19.9 °F 52% 30.14 in 10.0 mi SE 9.2 mph - N/A   Clear
12:56 PM 37.9 °F 34.4 °F 19.0 °F 47% 30.09 in 10.0 mi Variable 4.6 mph - N/A   Clear
1:56 PM 39.0 °F 35.7 °F 17.1 °F 41% 30.06 in 10.0 mi Variable 4.6 mph - N/A   Mostly Cloudy
2:56 PM 39.9 °F 37.8 °F 17.1 °F 40% 30.03 in 10.0 mi SSE 3.5 mph - N/A   Clear
3:56 PM 39.9 °F 35.8 °F 21.0 °F 47% 30.01 in 10.0 mi South 5.8 mph - N/A   Clear
4:56 PM 37.4 °F 33.8 °F 21.2 °F 52% 29.95 in 10.0 mi South 4.6 mph - N/A   Clear
5:56 PM 36.0 °F 33.3 °F 21.9 °F 57% 30.00 in 10.0 mi South 3.5 mph - N/A   Mostly Cloudy
6:56 PM 35.1 °F - 21.9 °F 59% 30.01 in 10.0 mi Calm Calm - N/A   Overcast
7:56 PM 34.0 °F 31.0 °F 23.0 °F 64% 30.00 in 10.0 mi South 3.5 mph - N/A   Overcast
8:56 PM 34.0 °F 26.6 °F 21.9 °F 61% 29.98 in 10.0 mi SW 9.2 mph - N/A   Scattered Clouds
9:56 PM 34.0 °F 26.6 °F 21.9 °F 61% 29.97 in 10.0 mi WSW 9.2 mph - N/A   Mostly Cloudy
10:56 PM 33.8 °F 25.8 °F 21.2 °F 60% 29.92 in 10.0 mi WSW 10.4 mph - N/A   Overcast
11:56 PM 33.1 °F 24.4 °F 21.0 °F 61% 29.95 in 10.0 mi WSW 11.5 mph - N/A   Overcast